When you browse on this site, cookies collect data to enhance your experience and personalize the content and advertising you see.
Visit our Privacy Policy to learn more. By continuing to use the site, you agree to this use of cookies and data.
  • In Hungary
  • List of Countries
  • For 7 days
  • Water Temperature
  • Satellite Maps
  • Weather Map
  • News
  • Weather Widgets
  • user-avatar
    Login

    Hourly Weather San Bernardino

    Today, 18 June, Tuesday

    Time Temperature Precipitation Wind Pressure Humidity
    00:00 +22°C° 0 mm 1 mps 729 mmHg 67%
    01:00 +22°C° 0 mm 1 mps 729 mmHg 68%
    02:00 +21°C° 0 mm 1 mps 729 mmHg 68%
    03:00 +21°C° 0 mm 1 mps 729 mmHg 68%
    04:00 +21°C° 0 mm 1 mps 729 mmHg 68%
    05:00 +23°C° 0 mm 1 mps 730 mmHg 62%
    06:00 +24°C° 0 mm 1 mps 730 mmHg 57%
    07:00 +26°C° 0 mm 1 mps 731 mmHg 51%
    08:00 +28°C° 0 mm 1 mps 731 mmHg 46%
    09:00 +30°C° 0 mm 2 mps 732 mmHg 40%
    10:00 +31°C° 0 mm 2 mps 732 mmHg 34%
    11:00 +32°C° 0 mm 2 mps 732 mmHg 33%
    12:00 +34°C° 0 mm 3 mps 731 mmHg 31%
    13:00 +35°C° 0 mm 3 mps 731 mmHg 30%
    14:00 +34°C° 0 mm 4 mps 731 mmHg 32%
    15:00 +33°C° 0 mm 4 mps 731 mmHg 34%
    16:00 +32°C° 0 mm 4 mps 730 mmHg 36%
    17:00 +29°C° 0 mm 3 mps 730 mmHg 43%
    18:00 +27°C° 0 mm 3 mps 730 mmHg 49%
    19:00 +26°C° 0 mm 2 mps 731 mmHg 55%
    20:00 +25°C° 0 mm 2 mps 731 mmHg 56%
    21:00 +25°C° 0 mm 2 mps 731 mmHg 57%
    22:00 +24°C° 0 mm 1 mps 731 mmHg 58%
    23:00 +24°C° 0 mm 1 mps 731 mmHg 60%

    Tomorrow, 19 June, Wednesday

    Time Temperature Precipitation Wind Pressure Humidity
    00:00 +23°C° 0 mm 1 mps 731 mmHg 62%
    01:00 +23°C° 0 mm 1 mps 731 mmHg 64%
    02:00 +22°C° 0 mm 1 mps 731 mmHg 65%
    03:00 +22°C° 0 mm 1 mps 731 mmHg 67%
    04:00 +22°C° 0 mm 1 mps 730 mmHg 68%
    05:00 +23°C° 0 mm 1 mps 731 mmHg 63%
    06:00 +25°C° 0 mm 1 mps 731 mmHg 58%
    07:00 +26°C° 0 mm 1 mps 732 mmHg 54%
    08:00 +28°C° 0 mm 1 mps 732 mmHg 49%
    09:00 +29°C° 0 mm 2 mps 732 mmHg 45%
    10:00 +31°C° 0 mm 2 mps 732 mmHg 40%
    11:00 +31°C° 0 mm 3 mps 731 mmHg 38%
    12:00 +33°C° 0 mm 3 mps 731 mmHg 36%
    13:00 +34°C° 0 mm 4 mps 731 mmHg 34%
    14:00 +34°C° 0 mm 4 mps 730 mmHg 35%
    15:00 +33°C° 0 mm 4 mps 730 mmHg 36%
    16:00 +33°C° 0 mm 4 mps 730 mmHg 38%
    17:00 +30°C° 0 mm 3 mps 730 mmHg 43%
    18:00 +28°C° 0 mm 3 mps 730 mmHg 48%
    19:00 +26°C° 0 mm 2 mps 730 mmHg 53%
    20:00 +26°C° 0 mm 2 mps 730 mmHg 55%
    21:00 +25°C° 0 mm 2 mps 730 mmHg 57%
    22:00 +24°C° 0 mm 2 mps 730 mmHg 60%
    23:00 +24°C° 0 mm 1 mps 730 mmHg 62%

    Day after tomorrow, 20 June, Thursday

    Time Temperature Precipitation Wind Pressure Humidity
    00:00 +23°C° 0 mm 1 mps 730 mmHg 64%
    01:00 +23°C° 0 mm 1 mps 730 mmHg 66%
    02:00 +22°C° 0 mm 1 mps 730 mmHg 68%
    03:00 +22°C° 0 mm 1 mps 729 mmHg 70%
    04:00 +21°C° 0 mm 1 mps 729 mmHg 73%
    05:00 +22°C° 0 mm 1 mps 729 mmHg 70%
    06:00 +23°C° 0 mm 1 mps 729 mmHg 67%
    07:00 +24°C° 0 mm 1 mps 730 mmHg 64%
    08:00 +25°C° 0 mm 2 mps 730 mmHg 59%
    09:00 +27°C° 0 mm 2 mps 730 mmHg 53%
    10:00 +28°C° 0 mm 3 mps 730 mmHg 48%
    11:00 +29°C° 0 mm 3 mps 729 mmHg 45%
    12:00 +30°C° 0 mm 4 mps 729 mmHg 42%
    13:00 +32°C° 0 mm 5 mps 729 mmHg 39%
    14:00 +30°C° 0 mm 5 mps 728 mmHg 40%
    15:00 +30°C° 0 mm 5 mps 728 mmHg 42%
    16:00 +29°C° 0 mm 5 mps 728 mmHg 43%
    17:00 +27°C° 0 mm 4 mps 728 mmHg 50%
    18:00 +26°C° 0 mm 4 mps 728 mmHg 57%
    19:00 +24°C° 0 mm 3 mps 728 mmHg 63%
    20:00 +22°C° 0 mm 3 mps 728 mmHg 68%
    21:00 +21°C° 0 mm 3 mps 728 mmHg 72%
    22:00 +20°C° 0 mm 2 mps 728 mmHg 76%
    23:00 +20°C° 0 mm 2 mps 728 mmHg 78%

    21 June, Friday

    Time Temperature Precipitation Wind Pressure Humidity
    00:00 +19°C° 0 mm 2 mps 728 mmHg 79%
    01:00 +19°C° 0 mm 2 mps 727 mmHg 81%
    02:00 +19°C° 0 mm 2 mps 727 mmHg 80%
    03:00 +19°C° 0 mm 2 mps 727 mmHg 80%
    04:00 +18°C° 0 mm 2 mps 727 mmHg 80%
    05:00 +19°C° 0 mm 2 mps 727 mmHg 77%
    06:00 +19°C° 0 mm 2 mps 728 mmHg 75%
    07:00 +19°C° 0 mm 2 mps 728 mmHg 73%
    08:00 +20°C° 0 mm 2 mps 728 mmHg 68%
    09:00 +21°C° 0 mm 3 mps 728 mmHg 64%
    10:00 +22°C° 0 mm 3 mps 728 mmHg 59%
    11:00 +24°C° 0 mm 3 mps 728 mmHg 56%
    12:00 +25°C° 0 mm 3 mps 728 mmHg 52%
    13:00 +26°C° 0 mm 4 mps 728 mmHg 48%
    14:00 +26°C° 0 mm 4 mps 727 mmHg 49%
    15:00 +26°C° 0 mm 4 mps 727 mmHg 50%
    16:00 +26°C° 0 mm 4 mps 727 mmHg 51%
    17:00 +24°C° 0 mm 3 mps 727 mmHg 58%
    18:00 +22°C° 0 mm 3 mps 727 mmHg 64%
    19:00 +20°C° 0 mm 2 mps 728 mmHg 71%
    20:00 +20°C° 0 mm 2 mps 728 mmHg 72%
    21:00 +19°C° 0 mm 2 mps 728 mmHg 73%
    22:00 +20°C° 0 mm 1 mps 729 mmHg 74%
    23:00 +20°C° 0 mm 1 mps 729 mmHg 73%

    22 June, Saturday

    Time Temperature Precipitation Wind Pressure Humidity
    00:00 +19°C° 0 mm 1 mps 729 mmHg 72%
    01:00 +19°C° 0 mm 1 mps 729 mmHg 71%
    02:00 +19°C° 0 mm 1 mps 729 mmHg 70%
    03:00 +19°C° 0 mm 1 mps 729 mmHg 70%
    04:00 +19°C° 0 mm 1 mps 729 mmHg 69%
    05:00 +20°C° 0 mm 1 mps 730 mmHg 63%
    06:00 +22°C° 0 mm 1 mps 730 mmHg 57%
    07:00 +23°C° 0 mm 1 mps 730 mmHg 51%
    08:00 +25°C° 0 mm 1 mps 731 mmHg 44%
    09:00 +27°C° 0 mm 1 mps 731 mmHg 38%
    10:00 +29°C° 0 mm 2 mps 731 mmHg 31%
    11:00 +30°C° 0 mm 2 mps 731 mmHg 30%
    12:00 +31°C° 0 mm 3 mps 731 mmHg 29%
    13:00 +33°C° 0 mm 4 mps 731 mmHg 27%
    14:00 +32°C° 0 mm 4 mps 730 mmHg 29%
    15:00 +32°C° 0 mm 4 mps 730 mmHg 31%
    16:00 +30°C° 0 mm 4 mps 730 mmHg 33%
    17:00 +28°C° 0 mm 3 mps 730 mmHg 40%
    18:00 +26°C° 0 mm 3 mps 730 mmHg 46%
    19:00 +24°C° 0 mm 2 mps 730 mmHg 53%
    20:00 +24°C° 0 mm 2 mps 730 mmHg 54%
    21:00 +23°C° 0 mm 1 mps 730 mmHg 55%
    22:00 +22°C° 0 mm 1 mps 730 mmHg 56%
    23:00 +22°C° 0 mm 1 mps 730 mmHg 57%

    23 June, Sunday

    Time Temperature Precipitation Wind Pressure Humidity
    00:00 +21°C° 0 mm 1 mps 730 mmHg 58%
    01:00 +21°C° 0 mm 1 mps 730 mmHg 58%
    02:00 +21°C° 0 mm 1 mps 730 mmHg 58%
    03:00 +20°C° 0 mm 1 mps 730 mmHg 58%
    04:00 +20°C° 0 mm 1 mps 730 mmHg 58%
    05:00 +22°C° 0 mm 1 mps 730 mmHg 54%
    06:00 +24°C° 0 mm 1 mps 730 mmHg 49%
    07:00 +25°C° 0 mm 1 mps 730 mmHg 44%
    08:00 +27°C° 0 mm 1 mps 731 mmHg 40%
    09:00 +29°C° 0 mm 2 mps 731 mmHg 36%
    10:00 +30°C° 0 mm 3 mps 731 mmHg 32%
    11:00 +31°C° 0 mm 3 mps 730 mmHg 29%
    12:00 +33°C° 0 mm 4 mps 730 mmHg 27%
    13:00 +34°C° 0 mm 4 mps 730 mmHg 25%
    14:00 +34°C° 0 mm 4 mps 729 mmHg 26%
    15:00 +34°C° 0 mm 4 mps 729 mmHg 27%
    16:00 +33°C° 0 mm 4 mps 728 mmHg 28%
    17:00 +30°C° 0 mm 4 mps 728 mmHg 36%
    18:00 +28°C° 0 mm 3 mps 728 mmHg 44%
    19:00 +26°C° 0 mm 3 mps 728 mmHg 51%
    20:00 +25°C° 0 mm 2 mps 728 mmHg 54%
    21:00 +23°C° 0 mm 2 mps 729 mmHg 57%
    22:00 +21°C° 0 mm 2 mps 729 mmHg 59%
    23:00 +22°C° 0 mm 1 mps 729 mmHg 62%
    Show more